Location: Zagreb
(45.8000°N, 16.0000°E)
Time: 21:29:48
(UTC+01:00)

A-11 Canister half - All Passes

Search period start: 25 January 2022 00:00
Search period end: 04 February 2022 00:00
Orbit: 1516 x 1684 km, 47.2° (Epoch: 24 January)

Date Brightness Start Highest point End Pass type
(mag) Time Alt. Az. Time Alt. Az. Time Alt. Az.
25 Jan - 00:58:29 10° W 01:03:50 17° SW 01:09:14 10° SSW night (unlit)
25 Jan - 14:15:01 10° SSE 14:20:13 16° SE 14:25:20 10° E daylight
25 Jan - 16:14:22 10° SW 16:23:26 51° SE 16:32:17 10° ENE daylight
25 Jan - 18:18:29 10° WSW 18:27:58 89° NNW 18:37:16 10° ENE visible
25 Jan - 20:23:47 10° W 20:33:09 87° N 20:42:27 10° ESE visible
25 Jan - 22:28:49 10° WNW 22:37:45 55° SSW 22:46:43 10° SE visible
26 Jan - 00:35:18 10° W 00:41:02 18° SW 00:46:51 10° SSW night (unlit)
26 Jan - 13:52:44 10° SSE 13:57:25 15° SE 14:02:02 10° E daylight
26 Jan - 15:51:34 10° SSW 16:00:35 49° SE 16:09:22 10° ENE daylight
26 Jan - 17:55:33 10° WSW 18:05:02 90° SSE 18:14:21 10° ENE visible
26 Jan - 20:00:50 10° W 20:10:13 85° N 20:19:31 10° E visible
26 Jan - 22:05:54 10° WNW 22:14:53 58° SSW 22:23:54 10° SE visible
27 Jan - 00:12:09 10° W 00:18:15 20° SW 00:24:25 10° S night (unlit)
27 Jan - 13:30:35 10° SSE 13:34:38 13° SE 13:38:38 10° E daylight
27 Jan - 15:28:45 10° SSW 15:37:43 46° SE 15:46:27 10° ENE daylight
27 Jan - 17:32:36 10° WSW 17:42:08 88° SSE 17:51:26 10° ENE visible
27 Jan - 19:37:53 10° W 19:47:18 85° N 19:56:36 10° E visible
27 Jan - 21:42:58 10° WNW 21:52:01 60° SSW 22:01:05 10° SE visible
27 Jan - 23:49:02 10° W 23:55:27 21° SW 00:01:56 10° S visible
28 Jan - 13:08:35 10° SE 13:11:51 12° ESE 13:15:05 10° ESE daylight
28 Jan - 15:05:58 10° SSW 15:14:52 44° SE 15:23:31 10° ENE daylight
28 Jan - 17:09:40 10° WSW 17:19:12 86° SSE 17:28:32 10° ENE visible
28 Jan - 19:14:56 10° W 19:24:23 84° N 19:33:41 10° E visible
28 Jan - 21:20:03 10° WNW 21:29:09 63° SSW 21:38:14 10° SE visible
28 Jan - 23:25:57 10° W 23:32:40 23° SW 23:39:25 10° S visible
29 Jan - 12:46:55 10° SE 12:49:04 11° ESE 12:51:11 10° ESE daylight
29 Jan - 14:43:11 10° SSW 14:52:01 42° SE 15:00:35 10° ENE daylight
29 Jan - 16:46:43 10° WSW 16:56:17 85° SSE 17:05:37 10° ENE daylight
29 Jan - 18:52:00 10° W 19:01:27 83° N 19:10:45 10° E visible
29 Jan - 20:57:07 10° WNW 21:06:17 66° SSW 21:15:23 10° SE visible
29 Jan - 23:02:53 10° W 23:09:51 25° SW 23:16:52 10° S visible
30 Jan - 14:20:26 10° SSW 14:29:09 40° SE 14:37:39 10° ENE daylight
30 Jan - 16:23:48 10° WSW 16:33:23 83° SSE 16:42:43 10° ENE daylight
30 Jan - 18:29:02 10° W 18:38:32 83° N 18:47:49 10° E visible
30 Jan - 20:34:11 10° WNW 20:43:24 68° SSW 20:52:32 10° SE visible
30 Jan - 22:39:51 10° W 22:47:03 26° SW 22:54:17 10° S visible
31 Jan - 13:57:41 10° SSW 14:06:19 38° SE 14:14:42 10° ENE daylight
31 Jan - 16:00:52 10° WSW 16:10:29 81° SSE 16:19:48 10° ENE daylight
31 Jan - 18:06:05 10° W 18:15:36 82° N 18:24:54 10° E visible
31 Jan - 20:11:15 10° WNW 20:20:31 70° SSW 20:29:41 10° SE visible
31 Jan - 22:16:49 10° W 22:24:15 28° SW 22:31:41 10° S visible
01 Feb - 13:34:57 10° SSW 13:43:28 36° SE 13:51:44 10° ENE daylight
01 Feb - 15:37:56 10° WSW 15:47:34 79° SSE 15:56:54 10° ENE daylight
01 Feb - 17:43:07 10° W 17:52:40 82° N 18:01:58 10° E visible
01 Feb - 19:48:20 10° WNW 19:57:38 73° SSW 20:06:49 10° ESE visible
01 Feb - 21:53:48 10° WNW 22:01:26 30° SW 22:09:04 10° S visible
02 Feb - 13:12:14 10° SSW 13:20:37 34° SE 13:28:46 10° ENE daylight
02 Feb - 15:15:01 10° WSW 15:24:39 76° SSE 15:34:00 10° ENE daylight
02 Feb - 17:20:10 10° W 17:29:44 82° N 17:39:03 10° E visible
02 Feb - 19:25:24 10° WNW 19:34:45 75° SSW 19:43:57 10° ESE visible
02 Feb - 21:30:48 10° WNW 21:38:37 32° SW 21:46:26 10° SSE visible
03 Feb - 12:49:32 10° SSW 12:57:47 32° SE 13:05:47 10° ENE daylight
03 Feb - 14:52:05 10° WSW 15:01:45 74° SSE 15:11:06 10° ENE daylight
03 Feb - 16:57:11 10° W 17:06:47 82° N 17:16:07 10° E daylight
03 Feb - 19:02:28 10° WNW 19:11:51 77° SSW 19:21:05 10° ESE visible
03 Feb - 21:07:48 10° WNW 21:15:48 34° SW 21:23:46 10° SSE visible
